Location: Bronschhofen
(47.4788°N, 9.0353°E)
Time: 18:31:23
(UTC+00:00)

USA 229 - Pass Details

Date: 20 May 2022
Orbit: 938 x 1274 km, 63.4° (Epoch: 24 May)

Event Time Altitude Azimuth Distance (km) Brightness Sun altitude
Rises 01:48:35 0° 318° (NW) 3,975 6.8 -14.8°
Reaches altitude 10° 01:51:14 10° 315° (NW) 3,059 6.2 -14.5°
Maximum altitude 01:58:27 59° 238° (WSW) 1,378 4.0 -13.8°
Drops below altitude 10° 02:06:06 10° 161° (SSE) 3,233 5.9 -13.0°
Sets 02:08:59 0° 158° (SSE) 4,215 6.5 -12.7°
